Location: Table Mountain
(47.2500°N, 120.5778°W)
Time: 03:20:42
(UTC-08:00)

Vanguard 1 Rocket - Visible Passes

Search period start: 13 December 2017 00:00
Search period end: 23 December 2017 00:00
Orbit: 656 x 4222 km, 34.3° (Epoch: 13 December)

Date Brightness Start Highest point End Pass type
(mag) Time Alt. Az. Time Alt. Az. Time Alt. Az.
13 Dec 10.1 16:43:42 10° SSW 16:52:33 36° SSE 17:07:58 10° E visible
13 Dec 10.1 19:06:36 10° WSW 19:19:10 53° S 19:28:43 35° SE visible
13 Dec 10.6 21:32:01 10° W 21:46:00 45° SSW 21:46:00 45° SSW visible
14 Dec 11.5 00:01:20 10° W 00:03:17 13° W 00:03:17 13° W visible
14 Dec 10.0 17:56:16 10° SW 18:06:45 48° SSE 18:21:34 18° ESE visible
14 Dec 10.3 20:20:34 10° W 20:34:51 50° S 20:38:52 46° SSE visible
14 Dec 11.1 22:47:38 10° W 22:56:09 27° WSW 22:56:09 27° WSW visible
15 Dec 10.0 16:46:30 10° SW 16:55:06 39° SSE 17:10:30 10° E visible
15 Dec 10.1 19:09:42 10° WSW 19:21:50 51° S 19:31:47 32° SE visible
15 Dec 10.7 21:35:17 10° W 21:49:05 40° SSW 21:49:05 40° SSW visible
16 Dec 11.6 00:05:48 10° W 00:06:23 11° W 00:06:23 11° W visible
16 Dec 9.9 17:59:19 10° WSW 18:09:27 48° S 18:24:46 16° ESE visible
16 Dec 10.4 20:23:47 10° W 20:37:27 46° SSW 20:42:04 42° SSE visible
16 Dec 11.2 22:51:20 10° W 22:59:23 24° WSW 22:59:23 24° WSW visible
17 Dec 9.9 16:49:25 10° SW 16:57:46 41° SSE 17:12:58 10° E visible
17 Dec 10.1 19:12:53 10° WSW 19:24:33 49° S 19:35:09 29° SE visible
17 Dec 10.8 21:38:42 10° W 21:52:28 35° SSW 21:52:28 35° SSW visible
18 Dec 9.9 18:02:27 10° WSW 18:12:13 47° S 18:28:19 14° ESE visible
18 Dec 10.5 20:27:05 10° W 20:40:05 41° SSW 20:45:39 36° S visible
18 Dec 11.3 22:55:32 10° W 23:02:58 20° WSW 23:02:58 20° WSW visible
19 Dec 9.8 16:52:27 10° SW 17:00:32 42° SSE 17:15:23 10° ESE visible
19 Dec 10.2 19:16:07 10° WSW 19:27:19 45° S 19:38:56 25° SE visible
19 Dec 10.9 21:42:22 10° W 21:55:39 30° SSW 21:56:17 30° SSW visible
20 Dec 9.9 18:05:39 10° WSW 18:15:04 45° S 18:32:23 10° ESE visible
20 Dec 10.6 20:30:31 10° W 20:42:45 36° SSW 20:49:44 29° S visible
20 Dec 11.4 23:00:35 10° WSW 23:07:06 16° SW 23:07:06 16° SW visible
21 Dec 9.8 16:55:35 10° WSW 17:03:23 42° S 17:17:44 10° ESE visible
21 Dec 10.3 19:19:28 10° WSW 19:30:07 40° SSW 19:43:23 19° SE visible
21 Dec 11.1 21:46:24 10° WSW 21:58:12 24° SSW 22:00:46 23° SSW visible
22 Dec 10.0 18:08:56 10° WSW 18:17:57 42° S 18:34:23 10° ESE visible
22 Dec 10.8 20:34:10 10° WSW 20:45:27 30° SSW 20:54:40 22° S visible
22 Dec 11.6 23:08:19 10° WSW 23:12:04 11° SW 23:12:04 11° SW visible
